"Pseudo-MPEC" for P213ppf

Created 2020 Aug 1 23:07:23 UT using Find_Orb

Click here for an explanation of pseudo-MPECs

 
 Astrometry: 
     P213ppf  C2020 07 21*AHEB3U05rs,Qbd*=R3pC`Bh=0/PsnKu2q=yisc$k\dCx)';[;eYF52
     P213ppf  C2020 07 21UaGMq1#AstrometryD%Nsky7jh0SFUieRgnZ\)O!b*bdW3O42.c+F52
     P213ppf  C2020 07 21ybBC+,P+spH:d(vH1QdmNMZWblredacted;e%xgtaL[kXQd(y$G\F52
     P213ppf  C2020 07 30Tom+YcRb73?clickS%_XWWherey,?LAd^rO@qSgSb\!Gpd2Ug+.FF52
     P213ppf  C2020 07 30jf$HfdAl_+*W4J(h86*N7QDU+V1rb??,`w.;Or5VWI9kr)uGtMEPF52
     P213ppf  C2020 07 30XV;QrZJXtGgbLb+(forsUcfF5pB\jI\t[l52dJ6BD]cyEKae.4@KF52
     P213ppf  C2020 07 31!g`qcw;236m%KZCup?t.)s-cxoN`)oe*6LexplanationUy#qejaF51
     P213ppf  C2020 07 312o2Flbq16%:/2#a',He!gIkm%DpPc`7u/#v!?m3Ur'*+fk(QFo7cF51
     P213ppf  C2020 07 31Y[3cDNTs]2o9QbLa4S%?8_+]A6)kj@.$UAgSIv'-.v99LTMYZFLsF51
     P213ppf  C2020 08 01.38672 00 06 23.59 -07 05 37.3    ~81A7 20.4 GVNEOCPI52
     P213ppf  C2020 08 01.40209 00 06 22.71 -07 05 12.7    ~81A7 19.8 GVNEOCPI52

Station data:
(F51) Pan-STARRS 1, Haleakala  (N20.707235 W156.255910)  US/Hawaii.
   Observers N. Primak, A. Schultz, S. Watters, J. Thiel, T. Goggia. Measurer
   PS1 Science Consortium. 1.8-m Ritchey-Chrétien + CCD.
(F52) Pan-STARRS 2, Haleakala  (N20.707384 W156.255910)  US/Hawaii. 1.8-m
   Ritchey-Chrétien + CCD.
(I52) Steward Observatory, Mt. Lemmon Station  (N32.442547 W110.788920)
   US/Arizona.  Observers T. A. Pruyne, B. M. Africano, E. J. Christensen, G.
   A. Farneth, D. C. Fuls, A. R. Gibbs, A. D. Grauer, H. Gröller, J. A.
   Johnson, R. A. Kowalski, S. M. Larson, G. J. Leonard, D. Rankin, R. L.
   Seaman, F. C. Shelly. 1.0-m reflector + CCD.

Orbital elements:  P213ppf
   Perihelion 2020 Jun 14.096508 +/- 0.221 TT =  2:18:58 (JD 2459014.596508)
Epoch 2020 Aug  1.0 TT = JDT 2459062.5   Earth MOID: 0.6533   AutoNEOCP
M  10.86762264 +/- 0.09             (J2000 ecliptic)
n   0.22686493 +/- 0.00124          Peri.  326.20130 +/- 0.15
a   2.66250930 +/- 0.00967          Node   337.31937 +/- 0.017
e   0.3916343 +/- 0.00178           Incl.   29.62482 +/- 0.055
P   4.34                   H 19.1   G  0.15   U  8.2  
q 1.61977923 +/- 0.00169    Q 3.70523937 +/- 0.0182
From 11 observations 2020 July 21-Aug. 1; mean residual 0".23
Residuals in arcseconds: 
200721 F52  .03-  .02-    200730 F52  .13-  .05+    200731 F51  .31+  .12-    
200721 F52  .13-  .13-    200730 F52  .10-  .13-    200801 I52  .06+  .42-    
200721 F52  .16+  .14+    200731 F51  .24+  .02-    200801 I52  .43-  .51+    
200730 F52  .22-  .20+    200731 F51  .31+  .09-    

Ephemerides (geocentric):
Date (UTC) HH   RA              Dec         delta   r     elong  mag " sig PA
---- -- -- --  -------------   -----------  ------ ------ -----  --- ---- ---
2020 08 01 23  00 05 53.377   -06 50 47.40  .82022 1.6710 130.9 21.0 .385  73
2020 08 02 00  00 05 51.151   -06 49 42.96  .82000 1.6711 130.9 21.0 .398  73
2020 08 02 01  00 05 48.919   -06 48 38.50  .81979 1.6711 131.0 21.0 .411  73
2020 08 02 02  00 05 46.681   -06 47 34.03  .81957 1.6712 131.0 21.0 .425  73
2020 08 02 03  00 05 44.438   -06 46 29.55  .81936 1.6713 131.1 21.0 .438  73
2020 08 02 04  00 05 42.189   -06 45 25.06  .81915 1.6714 131.1 21.0 .452  73
2020 08 02 05  00 05 39.934   -06 44 20.56  .81893 1.6715 131.1 21.0 .466  73
2020 08 02 06  00 05 37.673   -06 43 16.04  .81872 1.6716 131.2 21.0 .480  73
2020 08 02 07  00 05 35.407   -06 42 11.51  .81851 1.6717 131.2 21.0 .494  73
2020 08 02 08  00 05 33.135   -06 41 06.97  .81830 1.6717 131.3 21.0 .507  73
2020 08 02 09  00 05 30.858   -06 40 02.42  .81808 1.6718 131.3 21.0 .522  73
2020 08 02 10  00 05 28.575   -06 38 57.86  .81787 1.6719 131.4 21.0 .536  73
2020 08 02 11  00 05 26.286   -06 37 53.28  .81766 1.6720 131.4 21.0 .550  73
2020 08 02 12  00 05 23.992   -06 36 48.69  .81745 1.6721 131.4 21.0 .564  73
2020 08 02 13  00 05 21.692   -06 35 44.09  .81724 1.6722 131.5 21.0 .579  73
2020 08 02 14  00 05 19.386   -06 34 39.48  .81703 1.6723 131.5 21.0 .593  73
2020 08 02 15  00 05 17.074   -06 33 34.85  .81682 1.6723 131.6 21.0 .608  73
2020 08 02 16  00 05 14.757   -06 32 30.22  .81661 1.6724 131.6 21.0 .623  73
2020 08 02 17  00 05 12.435   -06 31 25.57  .81640 1.6725 131.7 21.0 .637  73
2020 08 02 18  00 05 10.106   -06 30 20.91  .81619 1.6726 131.7 21.0 .652  73
2020 08 02 19  00 05 07.772   -06 29 16.24  .81598 1.6727 131.7 21.0 .667  73
2020 08 02 20  00 05 05.432   -06 28 11.55  .81577 1.6728 131.8 21.0 .682  73
2020 08 02 21  00 05 03.087   -06 27 06.86  .81556 1.6729 131.8 21.0 .698  72
2020 08 02 22  00 05 00.736   -06 26 02.15  .81535 1.6729 131.9 21.0 .713  72
2020 08 02 23  00 04 58.379   -06 24 57.43  .81514 1.6730 131.9 21.0 .728  72
2020 08 03 00  00 04 56.017   -06 23 52.70  .81493 1.6731 132.0 21.0 .744  72
2020 08 03 01  00 04 53.648   -06 22 47.96  .81473 1.6732 132.0 21.0 .759  72
2020 08 03 02  00 04 51.275   -06 21 43.21  .81452 1.6733 132.0 21.0 .775  72
2020 08 03 03  00 04 48.895   -06 20 38.44  .81431 1.6734 132.1 21.0 .791  72
2020 08 03 04  00 04 46.510   -06 19 33.67  .81410 1.6735 132.1 21.0 .806  72
2020 08 03 05  00 04 44.120   -06 18 28.88  .81390 1.6736 132.2 21.0 .822  72
2020 08 03 06  00 04 41.723   -06 17 24.08  .81369 1.6736 132.2 21.0 .838  72
2020 08 03 07  00 04 39.321   -06 16 19.27  .81348 1.6737 132.3 21.0 .854  72
2020 08 03 08  00 04 36.913   -06 15 14.45  .81328 1.6738 132.3 21.0 .871  72
2020 08 03 09  00 04 34.500   -06 14 09.61  .81307 1.6739 132.3 21.0 .887  72
2020 08 03 10  00 04 32.081   -06 13 04.77  .81287 1.6740 132.4 21.0 .903  72
2020 08 03 11  00 04 29.656   -06 11 59.91  .81266 1.6741 132.4 21.0 .920  72
2020 08 03 12  00 04 27.226   -06 10 55.04  .81246 1.6742 132.5 21.0 .936  72
2020 08 03 13  00 04 24.790   -06 09 50.17  .81225 1.6742 132.5 21.0 .953  72
2020 08 03 14  00 04 22.348   -06 08 45.28  .81205 1.6743 132.6 21.0 .970  72
2020 08 03 15  00 04 19.901   -06 07 40.37  .81184 1.6744 132.6 21.0 .986  72
2020 08 03 16  00 04 17.448   -06 06 35.46  .81164 1.6745 132.6 21.0 1.00  72
2020 08 03 17  00 04 14.989   -06 05 30.54  .81144 1.6746 132.7 21.0 1.02  72
2020 08 03 18  00 04 12.525   -06 04 25.61  .81123 1.6747 132.7 21.0 1.04  72
2020 08 03 19  00 04 10.055   -06 03 20.66  .81103 1.6748 132.8 21.0 1.05  72
2020 08 03 20  00 04 07.579   -06 02 15.71  .81083 1.6749 132.8 21.0 1.07  72
2020 08 03 21  00 04 05.098   -06 01 10.74  .81063 1.6749 132.9 21.0 1.09  72
2020 08 03 22  00 04 02.611   -06 00 05.76  .81042 1.6750 132.9 21.0 1.11  72